Tyler, TX

3:28 PM CDT on September 23, 2017 (GMT -0500)
Tyler Pounds

Weather History for KTYR - August, 2014

Change the Weather History Date:

Tuesday, August 19, 2014

  Actual Average Record
Temperature  
Mean Temperature 86 °F 83 °F  
Max Temperature 96 °F 93 °F 110 °F (1909)
Min Temperature 75 °F 74 °F 59 °F (1976)
Degree Days  
Heating Degree Days 0 0  
Month to date heating degree days 0 0  
Since 1 June heating degree days 0 0  
Since 1 July heating degree days 0 0  
Cooling Degree Days 21 18  
Month to date cooling degree days 340 359  
Year to date cooling degree days 1720 1717  
Since 1 June cooling degree days 1327 1348  
Growing Degree Days 34 (Base 50)    
Moisture  
Dew Point 70 °F    
Average Humidity 65    
Maximum Humidity 88    
Minimum Humidity 41    
Precipitation  
Precipitation T in 0.10 in 2.33 in (2004)
Month to date precipitation 0.04 1.60  
Year to date precipitation 21.33 28.00  
Snow  
Snow 0.00 in - - ()
Month to date snowfall 0.0  
Since 1 June snowfall 0.0  
Since 1 July snowfall 0.0  
Snow Depth 0.00 in    
Sea Level Pressure  
Sea Level Pressure 29.90 in    
Wind  
Wind Speed 9 mph (South)    
Max Wind Speed 35 mph    
Max Gust Speed 41 mph    
Visibility 10 miles    
Events Rain    
T = Trace of Precipitation, MM = Missing Value Source: NWS Daily Summary

Daily Weather History Graph

Daily Weather History Graph

Search for Another Location

Airport or City:

Trip Planner

Search our weather history database for the weather conditions in past years. The results will help you decide how hot, cold, wet, or windy it might be!

Date:

Astronomy

Aug. 19, 2014 Rise Set
Actual Time 6:48 AM CDT 8:01 PM CDT
Civil Twilight 6:22 AM CDT 8:27 PM CDT
Nautical Twilight 5:52 AM CDT 8:57 PM CDT
Astronomical Twilight 5:20 AM CDT 9:29 PM CDT
Moon 1:46 AM CDT (8/19) 3:52 PM CDT (8/19)
Length of Visible Light 14h 04m
Length of Day
13h 13m
Waning Crescent, 29% of the Moon is Illuminated
Aug 19
Waning Crescent
Aug 25
New
Sep 2
First Quarter
Sep 8
Full
Sep 15
Last Quarter

Hourly Weather History & Observations

Time (CDT) Temp. Heat Index Dew Point Humidity Pressure Visibility Wind Dir Wind Speed Gust Speed Precip Events Conditions
12:53 AM 81.0 °F 85.2 °F 72.0 °F 74% 29.90 in 10.0 mi South 6.9 mph - N/A   Clear
1:53 AM 80.1 °F 83.8 °F 72.0 °F 76% 29.88 in 10.0 mi South 9.2 mph - N/A   Clear
2:53 AM 79.0 °F - 73.0 °F 82% 29.88 in 10.0 mi South 5.8 mph - 0.00 in Rain Light Rain
3:53 AM 79.0 °F - 73.0 °F 82% 29.87 in 10.0 mi SSW 9.2 mph - 0.00 in   Clear
4:53 AM 79.0 °F - 73.0 °F 82% 29.86 in 10.0 mi SSW 11.5 mph - N/A   Clear
5:53 AM 78.1 °F - 73.0 °F 84% 29.87 in 10.0 mi SSW 8.1 mph - N/A   Clear
6:53 AM 77.0 °F - 73.0 °F 88% 29.90 in 10.0 mi Calm Calm - N/A   Clear
7:53 AM 78.1 °F - 73.9 °F 87% 29.92 in 10.0 mi South 4.6 mph - N/A   Clear
8:53 AM 80.1 °F 84.5 °F 73.9 °F 81% 29.93 in 10.0 mi South 8.1 mph - N/A   Clear
9:53 AM 84.0 °F 90.2 °F 73.0 °F 69% 29.94 in 10.0 mi SSW 10.4 mph - N/A   Clear
10:53 AM 87.1 °F 93.6 °F 72.0 °F 61% 29.95 in 10.0 mi SSW 15.0 mph - N/A   Clear
11:53 AM 90.0 °F 96.4 °F 71.1 °F 54% 29.95 in 10.0 mi SW 9.2 mph - N/A   Clear
12:53 PM 91.0 °F 95.6 °F 69.1 °F 48% 29.94 in 10.0 mi SSW 11.5 mph - N/A   Partly Cloudy
1:53 PM 93.9 °F 99.1 °F 69.1 °F 44% 29.92 in 10.0 mi SW 10.4 mph - N/A   Clear
2:53 PM 93.9 °F 97.5 °F 66.9 °F 41% 29.89 in 10.0 mi SW 8.1 mph 16.1 mph N/A   Clear
3:53 PM 93.0 °F 95.9 °F 66.0 °F 41% 29.88 in 10.0 mi SSW 8.1 mph - N/A   Clear
4:53 PM 93.0 °F 96.4 °F 66.9 °F 42% 29.87 in 10.0 mi SW 6.9 mph - N/A   Clear
5:53 PM 91.0 °F 95.2 °F 68.0 °F 47% 29.87 in 10.0 mi SSE 8.1 mph - N/A   Clear
6:30 PM 82.4 °F 86.3 °F 69.8 °F 66% 29.93 in 10.0 mi SSE 31.1 mph 41.4 mph N/A   Squalls
6:53 PM 80.1 °F 82.7 °F 68.0 °F 67% 29.91 in 10.0 mi SSE 17.3 mph 28.8 mph N/A   Partly Cloudy
7:53 PM 79.0 °F - 68.0 °F 69% 29.91 in 10.0 mi South 11.5 mph - N/A   Clear
8:53 PM 77.0 °F - 68.0 °F 74% 29.89 in 10.0 mi SSE 6.9 mph - N/A   Clear
9:53 PM 75.9 °F - 68.0 °F 76% 29.90 in 10.0 mi SSW 8.1 mph - N/A   Clear
10:53 PM 75.0 °F - 69.1 °F 82% 29.90 in 10.0 mi South 5.8 mph - N/A   Clear
11:53 PM 77.0 °F - 68.0 °F 74% 29.90 in 10.0 mi South 9.2 mph - N/A   Clear